Location: N�grignas
(45.7812°N, 1.6921°E)
Time: 18:58:58
(UTC+00:00)

Daily predictions for brighter satellites

Satellite Brightness Start Highest point End
(mag) Time Altitude Azimuth Time Altitude Azimuth Time Altitude Azimuth
Cosmos 2154 Rocket 4.0 18:05:39 10° S 18:11:50 80° E 18:18:03 10° N
Meteor 1-19 Rocket 4.5 18:08:46 10° NNW 18:14:41 82° W 18:20:22 10° S
ERS-2 3.0 18:12:23 10° NE 18:15:33 27° E 18:18:43 10° SSE
CZ-2C R/B 3.4 18:11:12 10° NNE 18:15:54 29° E 18:20:29 10° SSE
Cosmos 1689 Rocket 3.1 18:14:38 10° NE 18:17:07 25° E 18:19:34 10° SSE
USA 305 4.2 18:14:32 10° NW 18:18:18 29° N 18:22:04 10° ENE
SL-08 RB Rocket 4.5 18:15:03 10° SE 18:19:02 31° ENE 18:23:05 10° N
CREW DRAGON DEMO-1 DEB 3.7 18:18:48 10° SSW 18:21:17 28° SE 18:23:46 10° E
NOSS 3-2 (A) 4.3 18:17:08 10° SSE 18:21:26 23° ESE 18:26:08 10° ENE
H-2A R/B 3.6 18:17:45 10° N 18:21:34 38° WNW 18:25:24 10° SW
FALCON 9 DEB 4.0 18:19:53 10° NW 18:22:50 32° NNE 18:25:45 10° E
HJ-1C 3.9 18:20:28 10° SE 18:23:31 36° ENE 18:26:35 10° N
COSMOS 2428 3.3 18:18:39 10° SSE 18:23:41 34° ESE 18:28:46 10° NE
SL-16 R/B 3.7 18:21:35 10° WSW 18:26:52 39° NW 18:32:10 10° NNE
Cosmos 1470 Rocket 4.0 18:25:10 10° SSW 18:29:36 69° W 18:34:02 10° N
USA 307 4.1 18:28:19 10° NW 18:32:09 30° NNE 18:35:52 10° ENE
SKYMED 2 4.5 18:28:18 10° N 18:32:33 54° WNW 18:36:47 10° SSW
SL-8 Rocket 4.2 18:27:10 10° SSE 18:33:05 48° E 18:38:59 10° NNE
CENTAUR R/B 3.6 18:29:17 10° SSE 18:33:18 19° ESE 18:37:44 10° ENE
USA 306 4.1 18:29:34 10° NW 18:33:27 31° NNE 18:37:06 11° ENE
ATLAS CENTAUR R/B 2.7 18:31:27 10° WSW 18:34:48 34° NW 18:38:13 10° NNE
Cosmos 962 Rocket 4.5 18:30:36 10° S 18:36:47 75° E 18:43:07 10° NNE
Cosmos 1743 4.4 18:37:46 10° ESE 18:39:53 14° E 18:42:01 10° NE
Cosmos 1666 2.6 18:37:44 10° S 18:41:24 63° E 18:45:08 10° NNE
USA 308 4.0 18:39:10 10° NW 18:43:02 32° NNE 18:46:15 13° ENE
Cosmos 1703 Rocket 3.5 18:39:20 10° N 18:43:44 84° E 18:48:05 10° S
Cosmos 2322 3.7 18:38:46 10° SSW 18:44:28 74° ESE 18:50:11 10° NNE
CSL-04 Rocket 3.7 18:39:34 10° SSE 18:45:01 63° ENE 18:50:27 10° N
Cosmos 1339 Rocket 4.5 18:39:38 10° N 18:45:51 66° E 18:52:08 10° SSE
Cosmos 1844 Rocket 3.6 18:42:07 10° NW 18:47:31 53° WSW 18:52:54 10° S
Okean-O 2.8 18:43:45 10° S 18:48:11 77° WSW 18:52:38 10° NNW
BREEZE-M DEB (TANK) 3.4 18:46:38 10° SSW 18:48:49 30° SE 18:50:06 19° E
Cosmos 1933 Rocket 4.1 18:45:42 10° SSW 18:50:00 62° W 18:54:24 10° N
Cosmos 2366 rocket 4.1 18:45:10 10° SSE 18:51:18 54° E 18:57:28 10° NNE
ASTEX 1 4.2 18:47:52 10° NNE 18:52:07 29° E 18:56:19 10° SSE
Cosmos 1777 Rocket 4.0 18:46:55 10° NNW 18:52:11 85° ENE 18:57:24 10° SSE
H-2A R/B 2.7 18:46:49 10° S 18:52:14 66° WSW 18:57:39 10° NNW
CSL-04 Debris 4.1 18:47:11 10° SSE 18:52:37 77° ENE 18:58:07 10° NNW
SJ-6B 3.8 18:52:44 15° ESE 18:55:13 27° ENE 18:58:39 10° N
Ariane Rocket 3.9 18:55:34 15° ESE 18:58:54 30° ENE 19:03:16 10° N
Cosmos 2221 Rocket 4.3 18:55:08 10° N 18:59:09 32° ENE 19:02:11 15° SE
USA 186 2.2 18:59:36 26° ENE 18:59:36 26° ENE 19:01:46 10° N
OBJECT-B 2.1 19:02:10 22° ENE 19:02:10 22° ENE 19:04:44 10° NNE
NOSS 3-2 (C) 4.1 18:58:28 10° SSE 19:03:04 27° ESE 19:08:09 10° NE
Meteor 1-11 Rocket 3.6 18:59:35 10° S 19:05:12 68° E 19:10:45 10° NNE
Okean 1-7 3.7 19:03:33 10° NNW 19:07:50 56° W 19:12:02 10° S
Cosmos 2360 Rocket 3.6 19:03:43 10° WSW 19:08:59 39° NW 19:14:18 10° NNE
YAOGAN 1 3.9 19:05:04 10° S 19:09:10 42° W 19:13:18 10° NNW
FALCON 9 DEB 2.9 19:09:37 10° NW 19:12:47 66° NNE 19:13:45 39° E
SAR-Lupe-4 4.1 19:09:18 10° N 19:12:50 60° WNW 19:16:22 10° SSW
Cosmos 1943 Rocket 4.0 19:11:04 10° N 19:13:57 14° NE 19:15:25 13° NE
Cosmos 2341 Rocket 4.4 19:08:43 10° SSW 19:14:58 67° W 19:21:13 10° N
Meteor 1-13 Rocket 4.4 19:09:16 10° NNW 19:15:12 83° W 19:21:01 10° S
Cosmos 1821 Rocket 4.4 19:10:03 10° SSE 19:15:38 36° E 19:21:10 10° NNE
Cosmos 2237 Rocket 2.8 19:11:02 10° SSE 19:16:05 34° ESE 19:21:11 10° NE
SJ 16-02 1.4 19:12:18 10° NNW 19:16:40 58° ENE 19:19:19 23° SE
Cosmos 1727 Rocket 4.0 19:11:06 10° N 19:17:14 62° ENE 19:23:23 10° SSE
Cosmos 1544 3.5 19:14:02 10° SSE 19:17:26 38° E 19:20:52 10° NNE
DMSP B5D2-2 4.0 19:13:14 10° NNE 19:18:27 65° E 19:23:36 10° S
Cosmos 2278 Rocket 2.3 19:13:11 10° NNW 19:18:46 55° ENE 19:22:11 23° SE
Cosmos 1536 2.7 19:15:47 10° S 19:19:46 82° E 19:23:46 10° N
FALCON 9 DEB 2.8 19:17:29 10° WNW 19:20:40 85° NNE 19:21:22 51° ESE
Okean 3 3.5 19:16:48 10° N 19:21:06 82° W 19:25:23 10° S
SL-4 R/B 2.7 19:18:00 10° WNW 19:21:17 37° SW 19:22:57 22° SSE
SWAS 4.3 19:17:25 10° SSW 19:21:42 79° ESE 19:26:01 10° NNE
SeaSat 1 2.3 19:20:27 10° NNE 19:25:24 72° ESE 19:30:19 10° SSW
Cosmos 2218 Rocket 4.1 19:19:11 10° S 19:25:36 83° W 19:32:01 10° N
Abrixas rocket 2.4 19:24:32 10° W 19:26:46 41° SW 19:26:46 41° SW
MetOp-A 4.0 19:24:10 10° SSE 19:29:31 81° ENE 19:34:54 10° NNW
Resurs 01 Rocket 2.9 19:31:41 24° NE 19:31:41 24° NE 19:34:35 10° N
SME Rocket 3.8 19:25:59 10° NNE 19:33:04 62° E 19:37:46 10° S
Helios 1A Rocket 4.4 19:31:13 10° SSW 19:34:57 36° W 19:38:43 10° NNW
Gbstr 26 Del rocket 3.6 19:31:36 10° WNW 19:36:16 63° NNE 19:38:19 37° E
Cosmos 2333 Rocket 3.0 19:30:57 10° SW 19:36:29 52° WNW 19:42:06 10° NNE
USA 234 3.5 19:33:08 25° ENE 19:36:35 44° SE 19:42:46 10° SSW
Lacrosse 4 Rocket 3.0 19:34:06 10° WSW 19:38:14 39° NW 19:42:29 10° NNE
Cosmos 1937 Rocket 4.1 19:34:48 10° N 19:39:30 34° ENE 19:39:49 34° ENE
USA 238 DEB 3.5 19:36:08 10° SSW 19:42:37 72° ESE 19:49:27 10° NE
USA 238 3.5 19:36:15 10° SSW 19:42:44 71° ESE 19:49:34 10° NE
CZ-4 R/B 4.5 19:42:40 10° WSW 19:44:45 14° W 19:46:52 10° WNW
DELTA 2 R/B (1) 4.1 19:40:07 10° WSW 19:45:21 44° S 19:46:36 38° SE
Resurs 1-3 3.7 19:45:27 53° E 19:45:39 53° ENE 19:49:57 10° N
FALCON 9 DEB 3.7 19:46:12 10° WNW 19:48:55 47° WSW 19:48:55 47° WSW
IRS-1A Rocket 4.1 19:46:16 24° SSE 19:49:47 81° ENE 19:55:20 10° NNW
Cosmos 2219 Rocket 3.3 19:47:26 10° SW 19:52:45 44° WNW 19:58:08 10° NNE
Cosmos 1238 Rocket 3.6 19:51:17 10° SSW 19:55:16 48° W 19:58:38 10° N
CZ-2C R/B 3.9 19:51:13 10° N 19:56:18 41° WNW 20:01:16 10° SW
USA 305 2.9 19:54:33 10° NW 19:58:46 69° NNE 19:58:46 69° NNE
FALCON 9 DEB 4.2 19:55:44 10° WNW 19:58:06 39° W 19:58:06 39° W
Cosmos 1980 3.5 19:55:03 10° SSW 20:00:40 80° ESE 20:06:21 10° NNE
Cosmos 1733 Rocket 3.1 19:58:12 10° SSW 20:02:32 78° W 20:06:56 10° N
COSMOS 2428 3.9 20:02:30 10° SW 20:07:52 41° NW 20:13:16 10° NNE
NOSS 3-2 (A) 3.6 20:05:54 10° SW 20:11:32 67° NW 20:18:04 10° NE
USA 307 3.2 20:08:20 10° NW 20:12:00 63° NW 20:12:00 63° NW
USA 306 3.2 20:09:34 10° NW 20:13:13 62° NW 20:13:13 62° NW
Cosmos 1743 3.8 20:11:30 10° SSW 20:15:14 45° WNW 20:19:00 10° N
Cosmos 2369 Rocket 3.8 20:14:43 10° N 20:18:00 20° NNE 20:18:00 20° NNE
Cosmos 1898 Rocket 3.4 20:13:57 10° NNW 20:19:13 85° WSW 20:19:30 80° S
NOSS 0 Rocket 4.2 20:15:01 10° SW 20:21:07 65° WNW 20:27:15 10° NNE
CENTAUR R/B 2.5 20:16:57 10° SW 20:22:51 82° NW 20:29:59 10° NE
USA 308 3.6 20:19:09 10° WNW 20:22:24 51° WNW 20:22:24 51° WNW
Cosmos 1674 Rocket 4.4 20:28:49 10° NNW 20:32:24 46° WNW 20:32:24 46° WNW
OBJECT-B 3.6 20:35:13 18° WNW 20:35:13 18° WNW 20:36:49 10° NW
Ariane Rocket 4.2 20:35:45 28° SW 20:37:43 39° W 20:42:30 10° NNW
Cosmos 1763 Rocket 4.0 20:37:26 10° SW 20:42:40 59° WNW 20:47:57 10° NNE
Cosmos 2297 4.2 20:40:08 10° NNW 20:44:36 53° N 20:44:36 53° N
NOSS 3-2 (C) 3.8 20:47:46 10° SW 20:53:23 59° NW 20:55:55 35° NNE
SJ 16-02 4.0 20:52:14 10° WNW 20:54:45 15° W 20:56:22 13° WSW
Cosmos 1943 Rocket 3.2 20:53:19 10° NNW 20:56:57 39° N 20:56:57 39° N
Cosmos 2237 Rocket 3.3 20:54:40 10° SW 21:00:03 41° NW 21:05:27 10° NNE
Cosmos 2278 Rocket 4.0 20:57:58 10° NW 21:02:27 24° WSW 21:04:05 21° SW
Resurs 01 Rocket 3.7 21:09:14 25° NW 21:09:14 25° NW 21:11:26 10° NNW
USA 234 3.6 21:20:31 62° WNW 21:20:31 62° WNW 21:26:16 10° WSW
Cosmos 2369 Rocket 4.4 21:58:00 10° NNW 21:59:48 21° NNW 21:59:48 21° NNW
CENTAUR R/B 4.4 22:09:16 10° W 22:14:43 28° NNW 22:21:00 10° NNE
